When you browse on this site, cookies collect data to enhance your experience and personalize the content and advertising you see.
Visit our Privacy Policy to learn more. By continuing to use the site, you agree to this use of cookies and data.
  • In Portugal
  • List of Countries
  • For 7 days
  • Water Temperature
  • Satellite Maps
  • Weather Map
  • Weather Widgets
  • user-avatar
    Login

    Hourly Weather Grechuhi

    Today, 22 April, Monday

    Time Temperature Precipitation Wind Pressure Humidity
    00:00 +10°C° 0 mm 3 mps 756 mmHg 57%
    01:00 +10°C° 0 mm 2 mps 756 mmHg 58%
    02:00 +9°C° 0 mm 2 mps 756 mmHg 58%
    03:00 +9°C° 0 mm 2 mps 757 mmHg 58%
    04:00 +9°C° 0 mm 2 mps 757 mmHg 57%
    05:00 +9°C° 0 mm 2 mps 757 mmHg 57%
    06:00 +10°C° 0 mm 2 mps 757 mmHg 54%
    07:00 +12°C° 0 mm 2 mps 758 mmHg 51%
    08:00 +13°C° 0 mm 2 mps 758 mmHg 48%
    09:00 +13°C° 0 mm 3 mps 758 mmHg 42%
    10:00 +14°C° 0 mm 3 mps 758 mmHg 36%
    11:00 +17°C° 0 mm 4 mps 758 mmHg 30%
    12:00 +17°C° 0 mm 4 mps 758 mmHg 30%
    13:00 +17°C° 0 mm 3 mps 758 mmHg 30%
    14:00 +17°C° 0 mm 3 mps 758 mmHg 30%
    15:00 +17°C° 0 mm 3 mps 758 mmHg 32%
    16:00 +16°C° 0 mm 3 mps 758 mmHg 33%
    17:00 +16°C° 0 mm 2 mps 758 mmHg 35%
    18:00 +15°C° 0 mm 2 mps 758 mmHg 37%
    19:00 +14°C° 0 mm 2 mps 758 mmHg 39%
    20:00 +13°C° 0 mm 1 mps 759 mmHg 40%
    21:00 +12°C° 0 mm 1 mps 759 mmHg 42%
    22:00 +11°C° 0 mm 1 mps 759 mmHg 44%
    23:00 +10°C° 0 mm 1 mps 759 mmHg 46%

    Tomorrow, 23 April, Tuesday

    Time Temperature Precipitation Wind Pressure Humidity
    00:00 +10°C° 0 mm 1 mps 760 mmHg 47%
    01:00 +10°C° 0 mm 1 mps 760 mmHg 48%
    02:00 +9°C° 0 mm 1 mps 760 mmHg 49%
    03:00 +9°C° 0 mm 1 mps 760 mmHg 50%
    04:00 +9°C° 0 mm 1 mps 760 mmHg 50%
    05:00 +8°C° 0 mm 1 mps 760 mmHg 51%
    06:00 +10°C° 0 mm 1 mps 760 mmHg 50%
    07:00 +12°C° 0 mm 1 mps 761 mmHg 48%
    08:00 +13°C° 0 mm 1 mps 761 mmHg 46%
    09:00 +15°C° 0 mm 1 mps 761 mmHg 41%
    10:00 +16°C° 0 mm 2 mps 761 mmHg 36%
    11:00 +18°C° 0 mm 2 mps 761 mmHg 31%
    12:00 +18°C° 0 mm 2 mps 760 mmHg 31%
    13:00 +18°C° 0 mm 2 mps 760 mmHg 31%
    14:00 +18°C° 0 mm 2 mps 760 mmHg 31%
    15:00 +18°C° 0 mm 2 mps 760 mmHg 32%
    16:00 +18°C° 0 mm 2 mps 759 mmHg 33%
    17:00 +18°C° 0 mm 2 mps 759 mmHg 35%
    18:00 +16°C° 0 mm 2 mps 759 mmHg 40%
    19:00 +14°C° 0 mm 2 mps 759 mmHg 44%
    20:00 +12°C° 0 mm 1 mps 759 mmHg 49%
    21:00 +12°C° 0 mm 1 mps 760 mmHg 51%
    22:00 +11°C° 0 mm 1 mps 760 mmHg 52%
    23:00 +11°C° 0 mm 1 mps 760 mmHg 54%

    Day after tomorrow, 24 April, Wednesday

    Time Temperature Precipitation Wind Pressure Humidity
    00:00 +10°C° 0 mm 1 mps 760 mmHg 56%
    01:00 +10°C° 0 mm 1 mps 760 mmHg 57%
    02:00 +9°C° 0 mm 1 mps 760 mmHg 59%
    03:00 +9°C° 0 mm 1 mps 760 mmHg 59%
    04:00 +9°C° 0 mm 1 mps 760 mmHg 59%
    05:00 +10°C° 0 mm 1 mps 760 mmHg 59%
    06:00 +10°C° 0 mm 2 mps 760 mmHg 56%
    07:00 +13°C° 0 mm 2 mps 760 mmHg 53%
    08:00 +14°C° 0 mm 2 mps 761 mmHg 50%
    09:00 +16°C° 0 mm 3 mps 760 mmHg 45%
    10:00 +17°C° 0 mm 3 mps 760 mmHg 40%
    11:00 +19°C° 0 mm 4 mps 760 mmHg 34%
    12:00 +19°C° 0 mm 4 mps 760 mmHg 34%
    13:00 +20°C° 0 mm 4 mps 760 mmHg 33%
    14:00 +20°C° 0 mm 4 mps 759 mmHg 33%
    15:00 +20°C° 0 mm 4 mps 759 mmHg 34%
    16:00 +19°C° 0 mm 3 mps 759 mmHg 36%
    17:00 +19°C° 0 mm 3 mps 758 mmHg 38%
    18:00 +17°C° 0 mm 3 mps 758 mmHg 43%
    19:00 +14°C° 0 mm 3 mps 758 mmHg 49%
    20:00 +14°C° 0 mm 2 mps 759 mmHg 54%
    21:00 +13°C° 0 mm 2 mps 759 mmHg 56%
    22:00 +12°C° 0 mm 2 mps 759 mmHg 58%
    23:00 +12°C° 0 mm 2 mps 759 mmHg 59%

    25 April, Thursday

    Time Temperature Precipitation Wind Pressure Humidity
    00:00 +10°C° 0 mm 2 mps 759 mmHg 61%
    01:00 +10°C° 0 mm 2 mps 759 mmHg 62%
    02:00 +9°C° 0 mm 2 mps 759 mmHg 63%
    03:00 +9°C° 0 mm 2 mps 759 mmHg 65%
    04:00 +9°C° 0 mm 2 mps 759 mmHg 66%
    05:00 +8°C° 0 mm 2 mps 759 mmHg 67%
    06:00 +10°C° 0 mm 2 mps 759 mmHg 62%
    07:00 +12°C° 0 mm 3 mps 759 mmHg 58%
    08:00 +14°C° 0 mm 3 mps 759 mmHg 53%
    09:00 +16°C° 0 mm 3 mps 759 mmHg 48%
    10:00 +18°C° 0 mm 4 mps 759 mmHg 43%
    11:00 +19°C° 0 mm 4 mps 759 mmHg 38%
    12:00 +20°C° 0 mm 4 mps 759 mmHg 37%
    13:00 +20°C° 0 mm 4 mps 758 mmHg 36%
    14:00 +21°C° 0 mm 4 mps 758 mmHg 35%
    15:00 +21°C° 0 mm 4 mps 758 mmHg 36%
    16:00 +20°C° 0 mm 4 mps 757 mmHg 37%
    17:00 +20°C° 0 mm 4 mps 757 mmHg 38%
    18:00 +18°C° 0 mm 4 mps 757 mmHg 44%
    19:00 +16°C° 0 mm 3 mps 757 mmHg 49%
    20:00 +14°C° 0 mm 3 mps 757 mmHg 55%
    21:00 +13°C° 0 mm 3 mps 757 mmHg 57%
    22:00 +12°C° 0 mm 3 mps 757 mmHg 58%
    23:00 +12°C° 0 mm 3 mps 757 mmHg 60%

    26 April, Friday

    Time Temperature Precipitation Wind Pressure Humidity
    00:00 +11°C° 0 mm 3 mps 757 mmHg 62%
    01:00 +11°C° 0 mm 3 mps 757 mmHg 64%
    02:00 +10°C° 0 mm 3 mps 756 mmHg 66%
    03:00 +10°C° 0 mm 3 mps 756 mmHg 67%
    04:00 +10°C° 0 mm 3 mps 756 mmHg 69%
    05:00 +9°C° 0 mm 3 mps 756 mmHg 70%
    06:00 +11°C° 0 mm 3 mps 756 mmHg 65%
    07:00 +13°C° 0 mm 4 mps 755 mmHg 59%
    08:00 +15°C° 0 mm 4 mps 755 mmHg 54%
    09:00 +16°C° 0 mm 5 mps 755 mmHg 49%
    10:00 +19°C° 0 mm 6 mps 755 mmHg 43%
    11:00 +21°C° 0 mm 6 mps 754 mmHg 38%
    12:00 +21°C° 0 mm 6 mps 754 mmHg 37%
    13:00 +22°C° 0 mm 6 mps 753 mmHg 35%
    14:00 +22°C° 0 mm 6 mps 753 mmHg 34%
    15:00 +22°C° 0 mm 6 mps 753 mmHg 34%
    16:00 +22°C° 0 mm 5 mps 752 mmHg 35%
    17:00 +21°C° 0 mm 4 mps 752 mmHg 36%
    18:00 +20°C° 0 mm 4 mps 752 mmHg 40%
    19:00 +18°C° 0 mm 4 mps 752 mmHg 44%
    20:00 +16°C° 0 mm 3 mps 752 mmHg 48%
    21:00 +14°C° 0 mm 3 mps 751 mmHg 50%
    22:00 +13°C° 0 mm 3 mps 751 mmHg 51%
    23:00 +13°C° 0 mm 3 mps 751 mmHg 53%

    27 April, Saturday

    Time Temperature Precipitation Wind Pressure Humidity
    00:00 +12°C° 0 mm 3 mps 751 mmHg 56%
    01:00 +12°C° 0 mm 3 mps 751 mmHg 59%
    02:00 +11°C° 0 mm 3 mps 751 mmHg 62%
    03:00 +11°C° 0 mm 3 mps 751 mmHg 64%
    04:00 +11°C° 0 mm 3 mps 751 mmHg 67%
    05:00 +10°C° 0 mm 3 mps 751 mmHg 69%
    06:00 +12°C° 0 mm 4 mps 751 mmHg 65%
    07:00 +14°C° 0 mm 4 mps 751 mmHg 60%
    08:00 +16°C° 0 mm 5 mps 751 mmHg 56%
    09:00 +17°C° 0 mm 5 mps 751 mmHg 50%
    10:00 +20°C° 0 mm 6 mps 751 mmHg 44%
    11:00 +22°C° 0 mm 6 mps 751 mmHg 38%
    12:00 +23°C° 0 mm 6 mps 751 mmHg 36%
    13:00 +23°C° 0 mm 6 mps 750 mmHg 35%
    14:00 +24°C° 0 mm 6 mps 750 mmHg 33%
    15:00 +25°C° 0 mm 5 mps 750 mmHg 35%
    16:00 +23°C° 0 mm 5 mps 750 mmHg 37%
    17:00 +23°C° 0 mm 4 mps 749 mmHg 39%
    18:00 +21°C° 0 mm 4 mps 749 mmHg 44%
    19:00 +19°C° 0 mm 3 mps 749 mmHg 49%
    20:00 +17°C° 0 mm 3 mps 749 mmHg 55%
    21:00 +16°C° 0 mm 3 mps 749 mmHg 56%
    22:00 +16°C° 0 mm 3 mps 749 mmHg 58%
    23:00 +14°C° 0 mm 3 mps 750 mmHg 59%
    Show more